GW2639 Weather Reports


time (UTC)temp
F
wind
direction
speed
knots
gust
knots
rain 1hr
in
rain 24hr
in
rain mn
in
humidity
%
barometer
mb
20260508111549 36 243 2.6 5.2 0.00 0.00 0.00 91 1017.8
20260508110040 36 220 1.7 5.2 0.00 0.00 0.00 91 1017.7
20260508104539 36 237 3.5 5.2 0.00 0.00 0.00 91 1017.6
20260508103041 36 222 2.6 4.3 0.00 0.00 0.00 91 1017.5
20260508101548 36 239 1.7 3.5 0.00 0.00 0.00 91 1017.5
20260508100045 37 223 3.5 7.0 0.00 0.00 0.00 90 1017.3
20260508094540 37 229 3.5 5.2 0.00 0.00 0.00 91 1017.2
20260508093040 37 218 1.7 5.2 0.00 0.00 0.00 90 1017.1
20260508091605 37 231 1.7 5.2 0.00 0.00 0.00 90 1017.1
20260508090058 37 241 2.6 4.3 0.00 0.00 0.00 90 1017.0
20260508084542 38 241 2.6 4.3 0.00 0.00 0.00 90 1016.9
20260508083044 38 242 2.6 5.2 0.00 0.00 0.00 90 1016.8
20260508081547 38 226 2.6 4.3 0.00 0.00 0.00 90 1016.7
20260508080041 38 233 2.6 5.2 0.00 0.00 0.00 90 1016.7
20260508074541 38 225 2.6 4.3 0.00 0.00 0.00 89 1016.7
20260508073040 39 229 1.7 4.3 0.00 0.00 0.00 90 1016.5
20260508071542 39 231 3.5 5.2 0.00 0.00 0.00 89 1016.5
20260508070042 39 230 2.6 5.2 0.00 0.00 0.00 89 1016.4
20260508064549 40 233 1.7 4.3 0.00 0.00 0.00 89 1016.6
20260508063115 40 235 1.7 4.3 0.00 0.00 0.00 89 1016.5
20260508061544 40 247 2.6 4.3 0.00 0.00 0.00 89 1016.6
20260508060045 40 237 2.6 6.1 0.00 0.00 0.00 89 1016.7
20260508054543 41 243 2.6 4.3 0.00 0.00 0.00 88 1016.6
20260508053052 41 223 1.7 5.2 0.00 0.00 0.00 88 1016.6
20260508051606 41 237 1.7 5.2 0.00 0.00 0.00 88 1016.5
20260508050050 42 233 1.7 4.3 0.00 0.00 0.00 88 1016.5
20260508044546 42 235 1.7 3.5 0.00 0.00 0.00 87 1016.6
20260508043040 42 211 1.7 3.5 0.00 0.00 0.00 87 1016.6
20260508041546 43 225 1.7 4.3 0.00 0.00 0.00 87 1016.5
20260508040045 43 206 1.7 3.5 0.00 0.00 0.00 86 1016.5
20260508034546 44 233 1.7 4.3 0.00 0.00 0.00 86 1016.5
20260508033048 44 212 1.7 3.5 0.00 0.00 0.00 85 1016.4
20260508031541 45 218 1.7 5.2 0.00 0.00 0.00 84 1016.2
20260508030045 45 231 1.7 3.5 0.00 0.00 0.00 84 1016.1
20260508024539 46 243 1.7 3.5 0.00 0.00 0.00 83 1015.8
20260508023038 47 240 1.7 5.2 0.00 0.00 0.00 82 1015.7
20260508021550 47 218 1.7 5.2 0.00 0.00 0.00 80 1015.3
20260508020040 48 233 2.6 4.3 0.00 0.00 0.00 79 1015.1
20260508014539 49 212 1.7 4.3 0.00 0.01 0.00 77 1014.9
20260508013046 50 233 2.6 4.3 0.00 0.01 0.00 76 1014.6
20260508011549 50 237 2.6 5.2 0.00 0.01 0.00 74 1014.4
20260508010058 52 235 2.6 5.2 0.00 0.01 0.00 73 1014.2
20260508004545 52 212 1.7 7.0 0.00 0.03 0.00 71 1014.0
20260508003046 53 210 2.6 6.1 0.00 0.03 0.00 70 1013.8
20260508001546 54 219 1.7 7.0 0.00 0.03 0.00 69 1013.6
20260508000047 55 207 2.6 7.0 0.00 0.03 0.00 67 1013.2
20260507234541 58 200 2.6 5.2 0.00 0.05 0.00 58 1013.0
20260507233042 59 221 1.7 4.3 0.00 0.05 0.00 56 1012.9
20260507231543 60 233 2.6 5.2 0.00 0.05 0.00 50 1012.9
20260507230105 61 202 1.7 5.2 0.00 0.05 0.00 49 1012.8
20260507224545 62 156 2.6 7.0 0.00 0.06 0.00 42 1012.9
20260507223131 62 0 1.7 5.2 0.00 0.06 0.00 42 1012.5
20260507221539 62 204 3.5 7.0 0.00 0.06 0.00 44 1012.5
20260507220046 62 0 0.9 5.2 0.00 0.06 0.00 44 1012.4
20260507214554 62 0 1.7 6.1 0.00 0.07 0.00 44 1012.1
20260507213046 63 322 0.9 9.6 0.00 0.07 0.00 44 1012.1
20260507211547 64 249 2.6 7.8 0.00 0.07 0.00 43 1011.8
20260507210046 64 285 0.9 7.8 0.00 0.07 0.00 42 1011.8
20260507204542 64 222 3.5 7.8 0.00 0.08 0.00 42 1011.6
20260507203046 64 234 1.7 8.7 0.00 0.08 0.00 41 1011.8
20260507201557 64 290 4.3 10.4 0.00 0.08 0.00 41 1011.8
20260507200054 66 260 1.7 10.4 0.00 0.08 0.00 44 1011.9
20260507194541 65 344 1.7 7.8 0.00 0.08 0.00 45 1012.1
20260507193051 65 292 0.9 8.7 0.00 0.08 0.00 46 1012.3
20260507191547 64 252 3.5 10.4 0.00 0.08 0.00 46 1012.3
20260507190051 63 220 1.7 6.1 0.00 0.08 0.00 49 1012.6
20260507184543 62 299 3.5 7.8 0.00 0.10 0.00 51 1013.0
20260507183042 62 0 0.9 6.1 0.00 0.10 0.00 52 1013.0
20260507181547 61 22 1.7 7.8 0.00 0.10 0.00 52 1012.9
20260507180039 62 285 2.6 12.2 0.00 0.10 0.00 52 1013.2
20260507174554 62 216 3.5 9.6 0.00 0.13 0.00 51 1013.3
20260507173044 62 310 2.6 8.7 0.00 0.13 0.00 48 1013.5
20260507171557 60 0 0.9 5.2 0.00 0.13 0.00 52 1013.7
20260507170050 61 316 0.9 7.8 0.00 0.13 0.00 54 1013.8
20260507164547 61 89 2.6 6.1 0.00 0.17 0.00 49 1014.0
20260507163045 59 180 1.7 6.1 0.00 0.17 0.00 50 1014.1
20260507161559 59 247 0.9 5.2 0.00 0.17 0.00 53 1014.2
20260507160044 58 347 0.9 7.8 0.00 0.17 0.00 51 1014.4
20260507154544 58 243 1.7 6.1 0.00 0.20 0.00 52 1014.4
20260507153042 58 27 1.7 9.6 0.00 0.20 0.00 53 1014.4
20260507151551 57 135 2.6 7.8 0.00 0.20 0.00 55 1014.3
20260507150050 57 72 1.7 7.8 0.00 0.20 0.00 54 1014.4
20260507144546 57 153 0.9 6.1 0.00 0.20 0.00 55 1014.6
20260507143052 57 322 0.9 5.2 0.00 0.20 0.00 63 1014.5
20260507141547 56 293 0.9 4.3 0.00 0.20 0.00 67 1014.6
20260507140046 56 359 0.9 3.5 0.00 0.20 0.00 70 1014.7
20260507134540 54 0 0.9 2.6 0.00 0.23 0.00 74 1014.9
20260507133047 54 0 0.0 1.7 0.00 0.23 0.00 76 1015.1
20260507131546 54 74 0.0 1.7 0.00 0.23 0.00 80 1015.1
20260507130059 53 0 0.0 0.9 0.00 0.23 0.00 86 1015.2
20260507124559 52 0 0.0 2.6 0.00 0.30 0.00 91 1015.1
20260507123046 51 258 0.0 0.9 0.00 0.30 0.00 93 1014.9
20260507121545 51 0 0.0 2.6 0.00 0.30 0.00 93 1015.1
20260507120046 50 218 0.9 2.6 0.00 0.30 0.00 93 1015.1
20260507114545 50 221 0.0 2.6 0.00 0.39 0.00 93 1015.1
20260507113040 50 245 0.0 1.7 0.00 0.39 0.00 93 1015.1